Tracking 30074 objects as of 14-Jan-2025
HD Live streaming from Space Station
objects crossing your sky now

O3B FM17

Track O3B FM17 now!
10-day predictions
O3B FM17 is classified as:


NORAD ID: 44114
Int'l Code: 2019-020C
Perigee: 8,068.6 km
Apogee: 8,077.5 km
Inclination: 0.1 °
Period: 287.9 minutes
Semi major axis: 14444 km
RCS: Unknown
Launch date: April 4, 2019
Source: O3b Networks (O3B)
Launch site: FRENCH GUIANA (FRGUI)
Your satellite tracking list
Your tracking list is empty




NASA's NSSDC Master Catalog

Two Line Element Set (TLE):
1 44114U 19020C   25013.40352219 -.00000025  00000-0  00000-0 0  9991
2 44114   0.0516  19.7299 0003096 277.7807  62.4528  5.00115029105524
Source of the keplerian elements: AFSPC